Flag for Brazil Weather past 2 weeks in Santos, São Paulo, Brazil

Now
55 °F

Partly cloudy.


Feels Like: 53 °F
Forecast: N/A
Wind: 8 mph from Southeast

Location: Sao Paulo Airport

Current Time: Jul 25, 2014 at 8:51:16 PM

Latest Report: Jul 25, 2014 at 8:00 PM


Visibility: N/A

Pressure: 30.21 "Hg

Humidity: 82%

Dew point: 50 °F

Location of SantosLocation

Historic Weather in Santos — Graph

°F

Santos temperature yesterday

Maximum temperature yesterday: 72 °F (at 1:00 PM)
Minimum temperature yesterday: 64 °F (at 5:00 AM)
Average temperature yesterday: 67 °F

Past Weeks' High & Low Weather Summary

 TemperatureHumidityPressure
High79 °F (Jul 17, 2:00 PM)88% (Jul 11, 12:00 AM)30.42 "Hg (Jul 11, 12:00 AM)
Low52 °F (Jul 20, 6:00 AM)24% (Jul 23, 4:00 PM)29.98 "Hg (Jul 24, 1:00 PM)
Average62 °F68%30.24 "Hg
* Reported Jul 10 7:00 PM — Jul 25 7:00 PM, Santos, Weather by CustomWeather, © 2014

Note: Actual official high and low records may vary slightly from our data, if they occured in-between our weather recording intervals... More about our weather records

Advertising

Santos weather history for previous 24 hours

 ConditionsComfort  
Time TempWeatherWind HumidityBarometerVisibility
7:00 PM
Jul 25
57 °FPartly cloudy.8 mph82%30.18 "Hg5 mi
6:00 PM57 °FPartly cloudy.8 mph82%30.18 "HgN/A
5:00 PM59 °FPartly cloudy.8 mph77%30.15 "HgN/A
4:00 PM63 °FPartly sunny.6 mph56%30.12 "HgN/A
3:00 PM63 °FPartly sunny.8 mph56%30.12 "HgN/A
2:00 PM63 °FPartly sunny.7 mph59%30.12 "HgN/A
1:00 PM61 °FPartly sunny.2 mph68%30.12 "HgN/A
12:00 PM61 °FBroken clouds.6 mph72%30.15 "HgN/A
11:00 AM61 °FPartly sunny.1 mph72%30.18 "HgN/A
10:00 AM57 °FLow clouds.7 mph82%30.18 "HgN/A
9:00 AM59 °FMostly cloudy.3 mph77%30.15 "HgN/A
8:00 AM57 °FMostly cloudy.6 mph82%30.12 "HgN/A
7:00 AM59 °FOvercast.7 mph77%30.09 "HgN/A
6:00 AM59 °FBroken clouds.6 mph82%30.07 "HgN/A
5:00 AM61 °FMostly cloudy.5 mph77%30.04 "HgN/A
4:00 AM61 °FMostly cloudy.7 mph77%30.04 "HgN/A
3:00 AM61 °FMostly cloudy.9 mph83%30.04 "HgN/A
2:00 AM63 °FMostly cloudy.7 mph88%30.01 "HgN/A
1:00 AM63 °FPassing clouds.13 mph83%30.04 "HgN/A
12:00 AM63 °FPassing clouds.13 mph83%30.04 "HgN/A
11:00 PM
Jul 24
64 °FOvercast.15 mph78%30.04 "HgN/A
10:00 PM64 °FPartly cloudy.17 mph73%30.04 "HgN/A
9:00 PM64 °FPassing clouds.17 mph73%30.04 "HgN/A
8:00 PM64 °FPassing clouds.18 mph73%30.04 "HgN/A
Weather by CustomWeather, © 2014

See weather overviewHow to use our weather pages